Regional Weather Roundup
Issued by NWS

Home | Current Version | Previous Version | Graphics & Text | Print | Product List | Glossary On
Versions: 1 2 3 4 5 6 7 8 9 10 11 12 13 14 15 16 17 18 19 20 21 22 23 24 25 26 27 28 29 30 31 32 33 34 35 36 37 38 39 40 41 42 43 44 45 46 47 48 49 50
000
ASUS43 KMPX 240801
RWRMN
WEATHER ROUNDUP FOR MINNESOTA
NATIONAL WEATHER SERVICE TWIN CITIES/CHANHASSEN MN
200 AM CST FRI NOV 24 2017


NOTE: "FAIR" INDICATES FEW OR NO CLOUDS BELOW 12,000 FEET WITH NO
SIGNIFICANT WEATHER AND/OR OBSTRUCTIONS TO VISIBILITY. N/A MEANS
CURRENT SKY AND/OR WEATHER CONDITIONS ARE NOT AVAILABLE.

MNZ060>063-068>070-240900-
   Twin Cities Metro

CITY           SKY/WX    TMP DP  RH WIND       PRES   REMARKS
TWIN CITIES    MOCLDY    49  37  63 S7        29.51F
ST PAUL        PTCLDY    42  34  73 SE6       29.52F
CRYSTAL        PTCLDY    47  33  58 S10       29.48F
BLAINE         PTCLDY    48  36  61 S9        29.48F
LAKEVILLE      CLEAR     46  36  66 S7        29.51F
EDEN PRAIRIE   CLEAR     46  34  62 S13       29.50F
SOUTH ST PAUL  PTCLDY    43  33  66 SE5       29.51F
LAKE ELMO      FAIR      45  34  65 S12       29.52F
$$
MNZ001>005-007-008-013>017-022>024-027-028-240900-
   Northwest Minnesota

CITY           SKY/WX    TMP DP  RH WIND       PRES   REMARKS
BEMIDJI        CLEAR     41  35  79 SW7       29.29F
HALLOCK        MOCLDY    36  34  93 S6        29.22R
ROSEAU         CLOUDY    45  37  76 SW12      29.19S
WARROAD        CLOUDY    45  39  81 SW10      29.19S
CROOKSTON      MOCLDY    41  36  81 S9        29.27F
FOSSTON        PTCLDY    37  34  87 S10       29.30F
DETROIT LAKES  CLEAR     45  37  76 S7        29.34F
MOORHEAD       CLEAR     37  34  87 CALM      29.33F
PARK RAPIDS    CLEAR     38  33  82 SW6       29.33F
MAHNOMEN       FAIR      39  35  84 SW12      29.32S
$$
MNZ006-009>011-018-025>026-240900-
   North Central Minnesota

CITY           SKY/WX    TMP DP  RH WIND       PRES   REMARKS
BAUDETTE       PTCLDY    45  36  70 SW10      29.18F
FLAG ISLAND    CLOUDY    43  36  75 W15       29.14R
INTL FALLS     PTCLDY    42  33  70 SW9       29.20F
WASKISH        PTCLDY    48  37  66 SW12G18   29.23F
BIG FORK       PTCLDY    39  34  81 S10       29.28F
LONGVILLE      CLOUDY    39  34  81 SW7       29.34F
GRAND RAPIDS   CLOUDY    42  34  73 S7        29.35F
CRANE LAKE     CLOUDY    37  30  75 S8        29.26F
ORR            CLOUDY    37  30  75 S9G16     29.24F
COOK           CLOUDY    39  34  81 S9        29.28F
WALKER         FAIR      42  35  75 SW10      29.31F
$$
MNZ012-019>021-037-240900-
   Northeast Minnesota

CITY           SKY/WX    TMP DP  RH WIND       PRES   REMARKS
DULUTH         CLOUDY    39  32  76 SW17G28   29.36F
ELY            CLOUDY    37  30  75 SW10G16   29.30F
HIBBING        CLOUDY    34  29  82 S5        29.33F WCI  30
EVELETH        CLOUDY    32  25  76 SW3       29.35F
DULUTH HARBOR  CLEAR     39  34  81 SW8       29.39F
TWO HARBORS    PTCLDY    37  30  75 SW6       29.34F
SILVER BAY     CLOUDY    34  28  80 SW3       29.34F
GRAND MARAIS     N/A     39  33  79 SW12      29.36F
G MARAIS ARPRT CLOUDY    32  25  74 S8        29.32F WCI  25
$$
MNZ029>031-032-039>041-046>048-054>057-064-240900-
   West Central Minnesota

CITY           SKY/WX    TMP DP  RH WIND       PRES   REMARKS
FERGUS FALLS   CLEAR     37  34  87 S7        29.39F
WHEATON        CLEAR     46  36  66 SW8       29.40F
MORRIS         CLEAR     43  36  75 S5        29.40F
ALEXANDRIA     CLEAR     45  37  73 SW8       29.41F
ELBOW LAKE     FAIR      37  33  87 S9        29.39F
WADENA         CLEAR     46  37  71 SW8       29.36F
GLENWOOD       CLEAR     39  36  87 SW12      29.43S
APPLETON       CLEAR     52  37  58 SW9       29.42F
BENSON         CLEAR     39  36  87 SW8       29.44F
ORTONVILLE     CLEAR     48  37  66 CALM        N/A
MADISON        CLEAR     55  39  54 SW10      29.43F
WILLMAR        FAIR      43  37  81 CALM      29.46F
$$
MNZ033>034-036-042>043-049>051-058-059-240900-
   Central Minnesota

CITY           SKY/WX    TMP DP  RH WIND       PRES   REMARKS
ST CLOUD       CLEAR     37  32  82 S7        29.44F
SAUK CENTRE    FAIR      41  35  80 S5        29.42F
PAYNESVILLE    CLEAR     43  37  79 S5        29.45F
AITKIN         CLEAR     39  32  75 S5        29.37F
PINE RIVER     CLEAR     28  27  93 CALM      29.40F
BRAINERD       CLEAR     40  33  76 S9        29.39F
STAPLES        CLEAR     45  36  70 SW8       29.37F
LONG PRAIRIE   FAIR      36  32  87 S7        29.42S
LITTLE FALLS   CLEAR     39  30  70 S5        29.42F
LITCHFIELD     CLEAR     43  36  75 SW5       29.46F
BUFFALO        PTCLDY    43  34  69 S6        29.49F
MAPLE LAKE     PTCLDY    44  36  74 S6        29.48F
HUTCHINSON     MOCLDY    38  34  85 CALM      29.49F
$$
MNZ037-044-045-052-053-240900-
   East Central Minnesota

CITY           SKY/WX    TMP DP  RH WIND       PRES   REMARKS
PRINCETON      CLOUDY    45  36  70 S7        29.45F
MORA           CLOUDY    36  32  87 S5        29.47F
CAMBRIDGE      CLOUDY    46  34  61 S9        29.46F
RUSH CITY      CLOUDY    42  32  68 S7        29.46F
MOOSE LAKE     CLEAR     36  30  80 SW8       29.39F
HINCKLEY       FAIR      37  32  81 S7        29.44F
CLOQUET        CLOUDY    39  28  65 SW14G21   29.38F
MCGREGOR       CLEAR     41  34  75 S9        29.38F
$$
MNZ071>073-080-081-089-090-097-098-240900-
   Southwest Minnesota

CITY           SKY/WX    TMP DP  RH WIND       PRES   REMARKS
MONTEVIDEO     CLEAR     48  39  71 W8        29.44F
GRANITE FALLS  CLEAR     48  40  73 S10       29.47F
CANBY          CLEAR     54  40  57 SW13G25   29.46F
MARSHALL       CLEAR     55  40  56 SW20G26   29.46F
REDWOOD FALLS  CLEAR     48  37  65 SW16      29.47F
OLIVIA         CLEAR     41  34  75 SW10      29.46F
PIPESTONE      CLEAR     45  37  76 SW10      29.51F
WINDOM         CLEAR     46  30  53 S12       29.54F
WORTHINGTON    CLEAR     49  39  68 SW18      29.54F
JACKSON        CLEAR     50  37  62 SW14G22   29.56F
SLAYTON        CLEAR     46  38  75 SW16      29.53F
$$
MNZ065>067-074>077-082>085-091>093-240900-
   South Central Minnesota

CITY           SKY/WX    TMP DP  RH WIND       PRES   REMARKS
MANKATO        CLEAR     45  35  68 S8        29.53F
NEW ULM        CLEAR     41  34  75 CALM      29.50F
ST JAMES       CLEAR     46  37  71 S12       29.53F
FAIRMONT       CLEAR     45  37  73 S12       29.56F
GLENCOE        CLEAR     43  35  75 S8        29.48F
FARIBAULT      CLEAR     45  36  70 S7        29.55F
OWATONNA       CLEAR     45  36  70 S13       29.56F
WASECA         CLEAR     45  34  65 S15       29.56F
ALBERT LEA     CLEAR     52  34  50 S12G20    29.58F
$$
MNZ078>079-086>088-094>096-240900-
   Southeast Minnesota

CITY           SKY/WX    TMP DP  RH WIND       PRES   REMARKS
ROCHESTER      CLEAR     43  34  70 S22       29.58F
RED WING       PTCLDY    45  30  57 CALM      29.54F
STANTON        CLEAR     43  34  71 S8        29.52F
DODGE CENTER   CLEAR     43  34  70 S21       29.56F
WINONA         CLOUDY    48  34  57 CALM      29.61F
AUSTIN         CLEAR     39  30  70 S10       29.61F
PRESTON        CLEAR     42  32  67 SW16      29.62F
$$
ABBREVIATIONS USED IN REMARKS
   TC - TEMPERATURES IN CELSIUS
  WCI - WIND CHILL INDEX
   HX - HEAT INDEX
  VSB - VISIBILITY
$$




USA.gov is the U.S. government's official web portal to all federal, state and local government web resources and services.